Retour au catalogue

SL-8 DEB

ActifLEO
NORAD 21158·DEBRIS·🇷🇺 Russia

Lancé Feb 12, 1991 depuis Plesetsk Cosmodrome

Loading…

Prochains Passages (prochaines 24 heures)

TLE

FraisSource: Space-Track

Époque: Sep 14, 2026, 13:40 UTC

1 21158U 91009V   26257.56955160  .00000231  00000-0  24860-2 0  9993
2 21158  74.1040 324.2259 0142821 304.9222 121.0587 12.13957470574371

Suivez SL-8 DEB en temps réel avec AllMySat

Download on the App Store